Location: Coopersdale
(40.3556°N, 78.9372°W)
Time: 09:54:19
(UTC+00:00)

Vanguard 1 - Pass Details

Date: 21 January 2021
Orbit: 649 x 3834 km, 34.2° (Epoch: 07 March)

Event Time Altitude Azimuth Distance (km) Brightness Sun altitude
Rises 03:05:32 0° 283° (WNW) 7,510 15.1 -53.6°
Reaches altitude 10° 03:14:05 10° 265° (W) 5,897 14.3 -55.0°
Maximum altitude 03:22:18 15° 236° (WSW) 4,682 13.6 -56.4°
Enters shadow 03:25:38 14° 221° (SW) 4,441 13.4 -57.0°
